Back to catalog

CZ-6A DEB

AlivePO
NORAD 61086·DEBRIS·🇨🇳 China

Launched Aug 6, 2024 from Taiyuan Satellite Launch Center

Loading…

Next Passes (next 24 hours)

TLE

FreshSource: Space-Track

Epoch: Sep 13, 2026, 10:58 UTC

1 61086U 24140NC  26256.45730931  .00003017  00000-0  24048-3 0  9997
2 61086  89.0255 258.5231 0179347 198.4364 161.0312 14.88159401110764

Track CZ-6A DEB in real time with AllMySat

Download on the App Store